PulseSat

PulseSat

GSAT 0208

Last updated on May 29, 2016, 1:44 a.m. UTC

1 41175U 15079B   16149.78967240  .00000049  00000-0  00000+0 0  9996
2 41175  54.9471 202.3720 0004779 269.3113  65.8967  1.70474131  2762
UTC
Height (km)
Latitude
Longitude
Inclination
Orbital Period

Next 30 passes for location: Hong Kong

Rise time Rise Azimuth (degrees) Set time Set Azimuth (degrees) Duration Max altitude (degrees)

No matching passes for this satellites

PulseSat

PulseSat is the new satellites software and hardware trackering solution by Pulsely.
Satellite Two Line Element Set source: US Air Force Space Command

Download PulseSat for iOS
© 2017 Pulsely Limited